Date String (YYYY-MM-DD hh:mm:ss) UTC,Instrument flags,absolute air pressure of the measurement (hPa),sample flow rate (lpm),inlet stack bypass flow (lpm),air temperature of the measurement (°C),ambient temperature measured by the external sensor (°C),aerosol sample conditioner tube jacket temperature (°C),OPC LED temperature (°C),internal box temperature (°C),relative humidity of the measurement (%),span deviation,mass concentration of particles derived from Lorenz-Mie calculation of OPC scattering (μg/m³),mass concentration of particles derived from Lorenz-Mie calculation of OPC scattering (μg/m³),mass concentration of particles derived from Lorenz-Mie calculation of OPC scattering (μg/m³)
DateTimeUTC,F1_M11,P_M11,Q1_M11,Q2_M11,T1_M11,T2_M11,T3_M11,T4_M11,T5_M11,U1_M11,ZSPAN_M11,X0_M11,X2_M11,X1_M11
2024-03-22 11:00:00,SystemResetWarning,0830.2,5.00,000.00,020.6,019.6,000.0,029.4,022.5,20.0,0000.0,0018.94,0004.17,0002.92
2024-03-22 11:01:00,SystemResetWarning,0830.2,5.00,000.00,020.6,019.6,000.0,029.4,022.5,20.0,0000.0,0018.71,0004.16,0002.89
2024-03-22 11:02:00,SystemResetWarning,0830.2,4.99,000.00,020.6,019.6,000.0,029.3,022.4,20.1,0000.0,0017.35,0004.13,0002.88
2024-03-22 11:03:00,SystemResetWarning,0830.2,4.99,000.00,020.6,019.6,000.0,029.3,022.4,20.1,0000.0,0017.83,0004.09,0002.88
2024-03-22 11:04:00,SystemResetWarning,0830.3,5.00,000.00,020.6,019.6,000.0,029.3,022.4,20.2,0000.0,0017.32,0004.10,0002.87
2024-03-22 11:05:00,SystemResetWarning,0830.2,5.01,000.00,020.6,019.6,000.0,029.3,022.4,20.2,0000.0,0016.60,0004.12,0002.87
2024-03-22 11:06:00,SystemResetWarning,0830.2,5.01,000.00,020.6,019.6,000.0,029.3,022.4,20.2,0000.0,0016.20,0004.17,0002.90
2024-03-22 11:07:00,SystemResetWarning,0830.2,5.00,000.00,020.6,019.7,000.0,029.3,022.5,20.2,0000.0,0016.36,0004.17,0002.90
2024-03-22 11:08:00,SystemResetWarning,0830.2,5.00,000.00,020.6,019.7,000.0,029.3,022.5,20.1,0000.0,0016.56,0004.16,0002.91
2024-03-22 11:09:00,SystemResetWarning,0830.2,5.00,000.00,020.6,019.8,000.0,029.3,022.5,20.1,0000.0,0016.21,0004.12,0002.89
2024-03-22 11:10:00,SystemResetWarning,0830.2,4.99,000.00,020.6,019.8,000.0,029.3,022.5,20.1,0000.0,0016.24,0004.12,0002.89
2024-03-22 11:11:00,SystemResetWarning,0830.3,5.00,000.00,020.6,019.8,000.0,029.3,022.5,20.2,0000.0,0016.04,0004.11,0002.91
2024-03-22 11:12:00,SystemResetWarning,0830.2,5.00,000.00,020.6,019.8,000.0,029.3,022.5,20.1,0000.0,0015.83,0004.14,0002.94
2024-03-22 11:13:00,SystemResetWarning,0830.3,4.99,000.00,020.6,019.8,000.0,029.3,022.4,20.1,0000.0,0016.89,0004.17,0002.94
2024-03-22 11:14:00,SystemResetWarning,0830.2,5.00,000.00,020.6,019.8,000.0,029.2,022.5,20.1,0000.0,0016.18,0004.20,0002.95
2024-03-22 11:15:00,SystemResetWarning,0830.2,5.01,000.00,020.6,019.8,000.0,029.2,022.5,20.0,0000.0,0015.50,0004.20,0002.95
2024-03-22 11:16:00,SystemResetWarning,0830.2,5.00,000.00,020.6,019.8,000.0,029.2,022.4,20.0,0000.0,0015.65,0004.25,0002.94
2024-03-22 11:17:00,SystemResetWarning,0830.2,5.00,000.00,020.6,019.8,000.0,029.2,022.4,20.0,0000.0,0015.87,0004.26,0002.94
2024-03-22 11:18:00,SystemResetWarning,0830.2,5.00,000.00,020.6,019.8,000.0,029.2,022.4,19.9,0000.0,0016.49,0004.27,0002.94
2024-03-22 11:19:00,SystemResetWarning,0830.3,5.01,000.00,020.6,019.8,000.0,029.2,022.4,19.9,0000.0,0016.67,0004.25,0002.94
2024-03-22 11:20:00,SystemResetWarning,0830.3,5.00,000.00,020.6,019.8,000.0,029.2,022.4,19.9,0000.0,0016.75,0004.27,0002.97
2024-03-22 11:21:00,SystemResetWarning,0830.3,5.00,000.00,020.6,019.8,000.0,029.2,022.4,19.9,0000.0,0017.15,0004.27,0002.99
2024-03-22 11:22:00,SystemResetWarning,0830.3,4.99,000.00,020.6,019.8,000.0,029.2,022.4,19.9,0000.0,0017.23,0004.23,0002.99
2024-03-22 11:23:00,SystemResetWarning,0830.3,5.01,000.00,020.6,019.8,000.0,029.2,022.4,19.8,0000.0,0016.83,0004.20,0003.00
2024-03-22 11:24:00,SystemResetWarning,0830.4,5.00,000.00,020.6,019.8,000.0,029.2,022.4,19.9,0000.0,0015.95,0004.16,0003.02
2024-03-22 11:25:00,SystemResetWarning,0830.4,5.00,000.00,020.6,019.9,000.0,029.2,022.4,19.9,0000.0,0016.37,0004.15,0003.03
2024-03-22 11:26:00,SystemResetWarning,0830.4,5.00,000.00,020.6,019.9,000.0,029.2,022.4,20.0,0000.0,0016.62,0004.13,0003.05
2024-03-22 11:27:00,SystemResetWarning,0830.4,4.99,000.00,020.6,019.9,000.0,029.2,022.4,20.0,0000.0,0017.52,0004.04,0003.05
2024-03-22 11:28:00,SystemResetWarning,0830.4,4.99,000.00,020.6,019.9,000.0,029.2,022.4,20.0,0000.0,0017.50,0003.99,0003.04
2024-03-22 11:29:00,SystemResetWarning,0830.6,4.99,000.00,020.6,019.9,000.0,029.2,022.4,20.0,0000.0,0016.47,0004.02,0003.03
2024-03-22 11:30:00,SystemResetWarning,0830.9,5.00,000.00,020.5,019.9,000.0,029.2,022.4,20.0,0000.0,0017.15,0004.06,0003.04
2024-03-22 11:31:00,SystemResetWarning,0830.7,5.00,000.00,020.5,019.8,000.0,029.2,022.4,20.1,0000.0,0016.90,0004.04,0003.05
2024-03-22 11:32:00,SystemResetWarning,0830.6,5.00,000.00,020.5,019.8,000.0,029.2,022.4,20.1,0000.0,0016.37,0004.02,0003.04
2024-03-22 11:33:00,SystemResetWarning,0830.5,5.01,000.00,020.5,019.8,000.0,029.2,022.4,20.1,0000.0,0016.37,0004.05,0003.03
2024-03-22 11:34:00,SystemResetWarning,0830.6,5.00,000.00,020.5,019.8,000.0,029.2,022.4,20.0,0000.0,0016.73,0004.06,0003.02
2024-03-22 11:35:00,SystemResetWarning,0830.5,5.00,000.00,020.5,019.8,000.0,029.1,022.3,20.0,0000.0,0017.06,0004.05,0003.00
2024-03-22 11:36:00,SystemResetWarning,0830.4,5.00,000.00,020.5,019.8,000.0,029.1,022.3,20.0,0000.0,0016.50,0004.00,0002.96
2024-03-22 11:37:00,SystemResetWarning,0830.4,4.99,000.00,020.5,019.8,000.0,029.1,022.3,19.9,0000.0,0015.72,0003.98,0002.94
2024-03-22 11:38:00,SystemResetWarning,0830.4,4.99,000.00,020.5,019.7,000.0,029.1,022.3,19.9,0000.0,0014.32,0003.95,0002.90
2024-03-22 11:39:00,SystemResetWarning,0830.4,4.99,000.00,020.5,019.7,000.0,029.1,022.3,19.9,0000.0,0013.99,0003.93,0002.87
2024-03-22 11:40:00,SystemResetWarning,0830.4,4.99,000.00,020.5,019.7,000.0,029.1,022.3,19.9,0000.0,0013.82,0003.92,0002.84
2024-03-22 11:41:00,SystemResetWarning,0830.4,5.00,000.00,020.5,019.6,000.0,029.1,022.3,19.9,0000.0,0012.44,0003.90,0002.80
2024-03-22 11:42:00,SystemResetWarning,0830.5,5.00,000.00,020.5,019.6,000.0,029.1,022.3,19.9,0000.0,0012.49,0003.92,0002.76
2024-03-22 11:43:00,SystemResetWarning,0830.4,5.00,000.00,020.4,019.6,000.0,029.1,022.3,19.9,0000.0,0013.96,0003.87,0002.71
2024-03-22 11:44:00,SystemResetWarning,0830.4,5.01,000.00,020.4,019.6,000.0,029.1,022.3,19.9,0000.0,0013.75,0003.84,0002.68
2024-03-22 11:45:00,SystemResetWarning,0830.4,5.01,000.00,020.4,019.6,000.0,029.1,022.2,19.9,0000.0,0013.54,0003.79,0002.65
2024-03-22 11:46:00,SystemResetWarning,0830.4,5.01,000.00,020.4,019.6,000.0,029.1,022.3,19.9,0000.0,0013.54,0003.81,0002.61
2024-03-22 11:47:00,SystemResetWarning,0830.4,5.00,000.00,020.4,019.6,000.0,029.1,022.2,19.9,0000.0,0013.61,0003.83,0002.59
2024-03-22 11:48:00,SystemResetWarning,0830.5,4.99,000.00,020.4,019.6,000.0,029.1,022.2,19.9,0000.0,0013.43,0003.80,0002.58
2024-03-22 11:49:00,SystemResetWarning,0830.5,4.99,000.00,020.4,019.7,000.0,029.1,022.2,19.9,0000.0,0013.78,0003.83,0002.56
2024-03-22 11:50:00,SystemResetWarning,0830.4,5.00,000.00,020.4,019.7,000.0,029.0,022.2,19.8,0000.0,0013.72,0003.84,0002.55
2024-03-22 11:51:00,SystemResetWarning,0830.5,5.01,000.00,020.4,019.7,000.0,029.0,022.2,19.8,0000.0,0013.97,0003.79,0002.54
2024-03-22 11:52:00,SystemResetWarning,0830.5,5.00,000.00,020.4,019.7,000.0,029.0,022.2,19.8,0000.0,0015.11,0003.78,0002.55
2024-03-22 11:53:00,SystemResetWarning,0830.6,5.01,000.00,020.4,019.7,000.0,029.0,022.2,19.8,0000.0,0014.87,0003.80,0002.54
2024-03-22 11:54:00,SystemResetWarning,0830.6,5.00,000.00,020.4,019.7,000.0,029.0,022.2,19.9,0000.0,0014.06,0003.82,0002.54
2024-03-22 11:55:00,SystemResetWarning,0830.6,4.99,000.00,020.4,019.7,000.0,029.0,022.2,19.9,0000.0,0013.58,0003.86,0002.55
2024-03-22 11:56:00,SystemResetWarning,0830.4,5.00,000.00,020.4,019.7,000.0,029.0,022.2,19.9,0000.0,0014.83,0003.87,0002.56
2024-03-22 11:57:00,SystemResetWarning,0830.5,5.00,000.00,020.4,019.7,000.0,029.0,022.2,19.9,0000.0,0015.00,0003.83,0002.57
2024-03-22 11:58:00,SystemResetWarning,0830.6,5.00,000.00,020.3,019.7,000.0,029.0,022.2,19.9,0000.0,0015.59,0003.86,0002.59
2024-03-22 11:59:00,SystemResetWarning,0830.5,5.00,000.00,020.4,019.7,000.0,029.0,022.2,19.9,0000.0,0015.36,0003.87,0002.59
